Location: Newark
(49.8969°N, 3.3422°E)
Time: 20:51:33
(UTC+00:00)

Vanguard 1 Rocket - Pass Details

Date: 24 January 2020
Orbit: 650 x 4226 km, 34.3° (Epoch: 22 February)

Event Time Altitude Azimuth Distance (km) Brightness Sun altitude
Rises 11:01:21 0° 239° (WSW) 4,447 11.1 19.7°
Reaches altitude 10° 11:03:59 10° 232° (SW) 3,811 11.0 19.8°
Maximum altitude 11:13:38 41° 166° (SSE) 3,170 11.8 20.1°
Drops below altitude 10° 11:30:52 10° 106° (ESE) 6,659 12.2 20.6°
Sets 11:37:24 0° 101° (ESE) 8,087 12.4 20.7°
